Flag for U.S.A. Weather past 2 weeks in Topeka, Kansas, U.S.A.

Now
73 °F

Clear.


Feels Like: 76 °F
Forecast: 63 / 84 °F
Wind: 8 mph from North

Location: Philip Billard Municipal Airport

Current Time: Jul 27, 2014 at 11:44:33 PM

Latest Report: Jul 27, 2014 at 10:53 PM


Visibility: 10 mi

Pressure: 30.11 "Hg

Humidity: 59%

Dew point: 58 °F

Location of TopekaLocation

Historic Weather in Topeka — Graph

°F

Topeka temperature yesterday

Maximum temperature yesterday: 100 °F (at 4:53 PM)
Minimum temperature yesterday: 80 °F (at 11:53 PM)
Average temperature yesterday: 88 °F

Past Weeks' High & Low Weather Summary

 TemperatureHumidityPressure
High102 °F (Jul 22, 6:53 PM)96% (Jul 14, 4:53 AM)30.17 "Hg (Jul 14, 4:53 AM)
Low52 °F (Jul 16, 4:58 AM)26% (Jul 27, 2:53 PM)29.71 "Hg (Jul 25, 6:53 PM)
Average78 °F65%29.98 "Hg
* Reported Jul 12 10:53 PM — Jul 27 10:53 PM, Topeka, Weather by CustomWeather, © 2014

Note: Actual official high and low records may vary slightly from our data, if they occured in-between our weather recording intervals... More about our weather records

Advertising

Topeka weather history for previous 24 hours

 ConditionsComfort  
Time TempWeatherWind HumidityBarometerVisibility
10:53 PM
Jul 27
73 °FClear.8 mph59%30.11 "Hg10 mi
9:53 PM74 °FClear.8 mph57%30.10 "Hg10 mi
8:53 PM78 °FSunny.9 mph48%30.06 "Hg10 mi
7:53 PM84 °FSunny.7 mph40%30.05 "Hg10 mi
6:53 PM87 °FSunny.12 mph35%30.05 "Hg10 mi
5:53 PM89 °FSunny.20 mph30%30.03 "Hg10 mi
4:53 PM91 °FSunny.13 mph28%30.03 "Hg10 mi
3:53 PM92 °FSunny.13 mph28%30.03 "Hg10 mi
2:53 PM91 °FSunny.14 mph26%30.03 "Hg10 mi
1:53 PM90 °FSunny.15 mph28%30.04 "Hg10 mi
12:53 PM90 °FSunny.14 mph31%30.04 "Hg10 mi
11:53 AM87 °FSunny.10 mph40%30.05 "Hg10 mi
10:53 AM84 °FSunny.12 mph59%30.05 "Hg10 mi
9:53 AM83 °FPassing clouds.7 mph72%30.05 "Hg10 mi
8:53 AM82 °FSunny.7 mph77%30.03 "Hg10 mi
7:53 AM79 °FSunny.5 mph88%29.99 "Hg9 mi
6:53 AM75 °FClear.6 mph94%29.96 "Hg7 mi
5:53 AM77 °FClear.8 mph94%29.93 "Hg10 mi
4:53 AM78 °FClear.8 mph90%29.92 "Hg9 mi
3:53 AM79 °FClear.9 mph90%29.90 "Hg10 mi
2:53 AM80 °FClear.10 mph90%29.88 "Hg10 mi
1:53 AM80 °FClear.8 mph87%29.87 "Hg10 mi
12:53 AM82 °FPassing clouds.7 mph82%29.85 "Hg10 mi
11:53 PM
Jul 26
80 °FClear.6 mph90%29.83 "Hg10 mi
Weather by CustomWeather, © 2014

See weather overviewHow to use our weather pages